DW4604 Weather Reports


Display with metric or nautical units.
time (UTC)temp
F
wind
direction
speed
MPH
gust
MPH
rain 1hr
in
rain 24hr
in
rain mn
in
humidity
%
barometer
mb
20260503213433 53 0 0.0 0.0 0.00 0.00 0.00 68 1014.6
20260503212932 53 0 0.0 0.0 0.00 0.00 0.00 69 1014.6
20260503212434 53 0 0.0 0.0 0.00 0.00 0.00 69 1014.6
20260503211933 53 0 0.0 0.0 0.00 0.00 0.00 70 1014.6
20260503211432 53 0 0.0 0.0 0.00 0.00 0.00 71 1014.5
20260503210931 53 0 0.0 0.0 0.00 0.00 0.00 71 1014.5
20260503210431 53 0 0.0 0.0 0.00 0.00 0.00 72 1014.6
20260503205932 53 0 0.0 0.0 0.00 0.00 0.00 73 1014.7
20260503205433 53 0 0.0 0.0 0.00 0.00 0.00 74 1014.7
20260503204932 53 0 0.0 0.0 0.00 0.00 0.00 74 1014.7
20260503204431 53 0 0.0 0.0 0.00 0.00 0.00 74 1014.7
20260503203933 53 0 0.0 0.0 0.00 0.00 0.00 74 1014.6
20260503203432 53 0 0.0 0.0 0.00 0.00 0.00 74 1014.6
20260503202933 53 0 0.0 0.0 0.00 0.00 0.00 74 1014.6
20260503202432 54 0 0.0 0.0 0.00 0.00 0.00 73 1014.6
20260503201932 54 0 0.0 0.0 0.00 0.00 0.00 72 1014.6
20260503201432 54 0 0.0 0.0 0.00 0.00 0.00 72 1014.5
20260503200932 55 0 0.0 0.0 0.00 0.00 0.00 71 1014.6
20260503200432 55 0 0.0 0.0 0.00 0.00 0.00 70 1014.5
20260503195932 55 0 0.0 0.0 0.00 0.00 0.00 70 1014.5
20260503195432 56 0 0.0 0.0 0.00 0.00 0.00 69 1014.4
20260503194933 56 0 0.0 0.0 0.00 0.00 0.00 68 1014.5
20260503194433 56 0 0.0 0.0 0.00 0.00 0.00 68 1014.4
20260503193932 56 0 0.0 0.0 0.00 0.00 0.00 67 1014.5
20260503193432 57 0 0.0 0.0 0.00 0.00 0.00 67 1014.5
20260503192934 57 0 0.0 0.0 0.00 0.00 0.00 66 1014.4
20260503191933 58 0 0.0 0.0 0.00 0.00 0.00 65 1014.4
20260503191432 58 0 0.0 0.0 0.00 0.00 0.00 65 1014.4
20260503190433 59 0 0.0 0.0 0.00 0.00 0.00 63 1014.4
20260503185934 59 0 0.0 0.0 0.00 0.00 0.00 62 1014.3
20260503184933 60 0 0.0 0.0 0.00 0.00 0.00 61 1014.2
20260503184433 61 0 0.0 0.0 0.00 0.00 0.00 59 1014.2
20260503183932 61 0 0.0 0.0 0.00 0.00 0.00 58 1014.2
20260503182933 62 0 0.0 0.0 0.00 0.00 0.00 57 1014.1
20260503182433 63 0 0.0 0.0 0.00 0.00 0.00 55 1014.1
20260503181933 64 0 0.0 0.0 0.00 0.00 0.00 54 1014.1
20260503181445 65 0 0.0 0.0 0.00 0.00 0.00 53 1014.1
20260503180932 65 0 0.0 0.0 0.00 0.00 0.00 52 1014.0
20260503180432 66 0 0.0 0.0 0.00 0.00 0.00 51 1013.9
20260503175933 67 0 0.0 0.0 0.00 0.00 0.00 50 1013.9
20260503175433 67 0 0.0 0.0 0.00 0.00 0.00 49 1013.9
20260503174933 67 0 0.0 0.0 0.00 0.00 0.00 50 1013.8
20260503174432 68 0 0.0 0.0 0.00 0.00 0.00 48 1013.8
20260503173933 69 0 0.0 0.0 0.00 0.00 0.00 47 1013.7
20260503173433 70 0 0.0 0.0 0.00 0.00 0.00 45 1013.7
20260503172933 70 0 0.0 0.0 0.00 0.00 0.00 45 1013.7
20260503172433 71 0 0.0 0.0 0.00 0.00 0.00 44 1013.7
20260503170933 72 0 0.0 0.0 0.00 0.00 0.00 41 1013.7
20260503170433 72 0 0.0 0.0 0.00 0.00 0.00 42 1013.7
20260503150934 77 0 0.0 0.0 0.00 0.00 0.00 36 1014.1
20260503130434 79 0 0.0 0.0 0.00 0.00 0.00 35 1015.7
20260503110433 77 0 0.0 0.0 0.00 0.00 0.00 39 1016.9
20260503090434 74 0 0.0 0.0 0.00 0.00 0.00 43 1018.0
20260503081435 71 0 0.0 0.0 0.00 0.00 0.00 48 1018.3
20260503080935 70 0 0.0 0.0 0.00 0.00 0.00 46 1018.3
20260503080434 69 0 0.0 0.0 0.00 0.00 0.00 47 1018.2
20260503071934 67 0 0.0 0.0 0.00 0.00 0.00 53 1018.2
20260503070935 66 0 0.0 0.0 0.00 0.00 0.00 53 1018.1
20260503070434 65 0 0.0 0.0 0.00 0.00 0.00 55 1018.1
20260503054935 56 0 0.0 0.0 0.00 0.00 0.00 65 1018.1
20260503054435 55 0 0.0 0.0 0.00 0.00 0.00 64 1018.2
20260503053934 54 0 0.0 0.0 0.00 0.00 0.00 65 1018.1
20260503053436 53 0 0.0 0.0 0.00 0.00 0.00 65 1018.2
20260503052936 53 0 0.0 0.0 0.00 0.00 0.00 66 1018.2
20260503052436 52 0 0.0 0.0 0.00 0.00 0.00 67 1018.2
20260503051935 51 0 0.0 0.0 0.00 0.00 0.00 68 1018.2
20260503051437 51 0 0.0 0.0 0.00 0.00 0.00 69 1018.2
20260503050935 51 0 0.0 0.0 0.00 0.00 0.00 70 1018.2
20260503045935 49 0 0.0 0.0 0.00 0.00 0.00 72 1018.2
20260503045435 49 0 0.0 0.0 0.00 0.00 0.00 74 1018.2
20260503044935 48 0 0.0 0.0 0.00 0.00 0.00 76 1018.2
20260503044435 47 0 0.0 0.0 0.00 0.00 0.00 79 1018.1
20260503043936 46 0 0.0 0.0 0.00 0.00 0.00 79 1018.1
20260503043435 45 0 0.0 0.0 0.00 0.00 0.00 80 1018.1
20260503042937 45 0 0.0 0.0 0.00 0.00 0.00 81 1018.0
20260503042435 44 0 0.0 0.0 0.00 0.00 0.00 82 1018.0
20260503041937 44 0 0.0 0.0 0.00 0.00 0.00 83 1017.9
20260503041435 43 0 0.0 0.0 0.00 0.00 0.00 83 1017.9
20260503040935 42 0 0.0 0.0 0.00 0.00 0.00 84 1017.9
20260503040436 42 0 0.0 0.0 0.00 0.00 0.00 83 1017.9
20260503035936 42 0 0.0 0.0 0.00 0.00 0.00 83 1017.8
20260503035435 42 0 0.0 0.0 0.00 0.00 0.00 83 1017.8
20260503034935 42 0 0.0 0.0 0.00 0.00 0.00 83 1017.8
20260503034436 42 0 0.0 0.0 0.00 0.00 0.00 83 1017.8
20260503033935 42 0 0.0 0.0 0.00 0.00 0.00 82 1017.8
20260503032935 42 0 0.0 0.0 0.00 0.00 0.00 82 1017.7
20260503032437 42 0 0.0 0.0 0.00 0.00 0.00 82 1017.7
20260503031935 42 0 0.0 0.0 0.00 0.00 0.00 83 1017.6
20260503031435 42 0 0.0 0.0 0.00 0.00 0.00 83 1017.5
20260503030936 42 0 0.0 0.0 0.00 0.00 0.00 83 1017.6
20260503030435 42 0 0.0 0.0 0.00 0.00 0.00 84 1017.6
20260503025936 41 0 0.0 0.0 0.00 0.00 0.00 84 1017.7
20260503025436 41 0 0.0 0.0 0.00 0.00 0.00 84 1017.7
20260503024936 41 0 0.0 0.0 0.00 0.00 0.00 84 1017.7
20260503024435 41 0 0.0 0.0 0.00 0.00 0.00 84 1017.7
20260503023936 40 0 0.0 0.0 0.00 0.00 0.00 84 1017.7
20260503023435 40 0 0.0 0.0 0.00 0.00 0.00 83 1017.7
20260503022935 40 0 0.0 0.0 0.00 0.00 0.00 83 1017.7
20260503022437 40 0 0.0 0.0 0.00 0.00 0.00 82 1017.8
20260503021935 40 0 0.0 0.0 0.00 0.00 0.00 82 1017.8
20260503021435 41 0 0.0 0.0 0.00 0.00 0.00 82 1017.7
20260503020935 41 0 0.0 0.0 0.00 0.00 0.00 81 1017.7
20260503020436 41 0 0.0 0.0 0.00 0.00 0.00 81 1017.8
20260503015936 41 0 0.0 0.0 0.00 0.00 0.00 80 1017.8
20260503015436 42 0 0.0 0.0 0.00 0.00 0.00 80 1017.8
20260503014936 42 0 0.0 0.0 0.00 0.00 0.00 79 1017.8
20260503013935 43 0 0.0 0.0 0.00 0.00 0.00 78 1017.8
20260503013435 44 0 0.0 0.0 0.00 0.00 0.00 77 1017.8
20260503012935 45 0 0.0 0.0 0.00 0.00 0.00 77 1017.9
20260503012436 45 0 0.0 0.0 0.00 0.00 0.00 77 1017.9
20260503011936 45 0 0.0 0.0 0.00 0.00 0.00 77 1017.8
20260503011437 45 0 0.0 0.0 0.00 0.00 0.00 77 1017.8
20260503010436 45 0 0.0 0.0 0.00 0.00 0.00 76 1017.9
20260503005936 45 0 0.0 0.0 0.00 0.00 0.00 76 1017.9
20260503004936 46 0 0.0 0.0 0.00 0.00 0.00 76 1018.0
20260503003936 46 0 0.0 0.0 0.00 0.00 0.00 76 1018.0
20260503003437 46 0 0.0 0.0 0.00 0.00 0.00 76 1018.0
20260503002936 46 0 0.0 0.0 0.00 0.00 0.00 76 1018.0
20260503001936 46 0 0.0 0.0 0.00 0.00 0.00 76 1018.1
20260503001436 46 0 0.0 0.0 0.00 0.00 0.00 75 1018.1
20260502235937 48 0 0.0 0.0 0.00 0.00 0.00 73 1018.1
20260502234936 49 0 0.0 0.0 0.00 0.00 0.00 73 1018.2
20260502234436 49 0 0.0 0.0 0.00 0.00 0.00 72 1018.2
20260502233937 50 0 0.0 0.0 0.00 0.00 0.00 72 1018.3
20260502233436 49 0 0.0 0.0 0.00 0.00 0.00 72 1018.3
20260502232936 49 0 0.0 0.0 0.00 0.00 0.00 73 1018.3
20260502232436 48 0 0.0 0.0 0.00 0.00 0.00 74 1018.3
20260502231937 48 0 0.0 0.0 0.00 0.00 0.00 75 1018.3
20260502231436 47 0 0.0 0.0 0.00 0.00 0.00 76 1018.3
20260502230936 47 0 0.0 0.0 0.00 0.00 0.00 75 1018.4
20260502230436 47 0 0.0 0.0 0.00 0.00 0.00 74 1018.5
20260502225940 48 0 0.0 0.0 0.00 0.00 0.00 74 1018.5
20260502224937 49 0 0.0 0.0 0.00 0.00 0.00 72 1018.6
20260502224437 50 0 0.0 0.0 0.00 0.00 0.00 70 1018.6
20260502223937 50 0 0.0 0.0 0.00 0.00 0.00 70 1018.7
20260502222937 50 0 0.0 0.0 0.00 0.00 0.00 71 1018.7
20260502222438 50 0 0.0 0.0 0.00 0.00 0.00 71 1018.6
20260502221937 50 0 0.0 0.0 0.00 0.00 0.00 71 1018.7
20260502221437 50 0 0.0 0.0 0.00 0.00 0.00 71 1018.7
20260502220937 50 0 0.0 0.0 0.00 0.00 0.00 72 1018.7
20260502215437 49 0 0.0 0.0 0.00 0.00 0.00 73 1018.9
20260502214938 49 0 0.0 0.0 0.00 0.00 0.00 73 1018.9
20260502214436 50 0 0.0 0.0 0.00 0.00 0.00 72 1019.0